• In Czech Republic
  • List of Countries
  • For 7 days
  • Water Temperature
  • Satellite Maps
  • Weather Map
  • Weather Widgets
  • user-avatar
    Login

    Hourly Weather Pylyava

    Today, 24 June, Sunday

    Time Temperature Precipitation Wind Pressure Humidity
    00:00 +11°C° 0 mm 4 mps 749 mmHg 92%
    01:00 +10°C° 0 mm 4 mps 749 mmHg 93%
    02:00 +9°C° 0 mm 2 mps 749 mmHg 96%
    03:00 +9°C° 0 mm 3 mps 749 mmHg 95%
    04:00 +9°C° 0 mm 3 mps 750 mmHg 95%
    05:00 +8°C° 0 mm 4 mps 750 mmHg 95%
    06:00 +10°C° 0 mm 4 mps 750 mmHg 90%
    07:00 +11°C° 0 mm 4 mps 750 mmHg 84%
    08:00 +12°C° 0 mm 4 mps 750 mmHg 79%
    09:00 +14°C° 0 mm 4 mps 750 mmHg 73%
    10:00 +15°C° 0 mm 4 mps 751 mmHg 66%
    11:00 +18°C° 0 mm 4 mps 751 mmHg 59%
    12:00 +19°C° 0 mm 4 mps 751 mmHg 56%
    13:00 +19°C° 0 mm 4 mps 751 mmHg 53%
    14:00 +20°C° 0 mm 3 mps 751 mmHg 50%
    15:00 +20°C° 0.1 mm 3 mps 751 mmHg 52%
    16:00 +20°C° 0.1 mm 3 mps 751 mmHg 54%
    17:00 +20°C° 0.1 mm 3 mps 751 mmHg 56%
    18:00 +19°C° 0.1 mm 3 mps 751 mmHg 63%
    19:00 +17°C° 0.1 mm 3 mps 751 mmHg 70%
    20:00 +16°C° 0.1 mm 2 mps 751 mmHg 77%
    21:00 +15°C° 0 mm 2 mps 752 mmHg 81%
    22:00 +14°C° 0 mm 2 mps 752 mmHg 84%
    23:00 +13°C° 0 mm 2 mps 752 mmHg 87%

    Tomorrow, 25 June, Monday

    Time Temperature Precipitation Wind Pressure Humidity
    00:00 +13°C° 0 mm 2 mps 753 mmHg 89%
    01:00 +12°C° 0 mm 2 mps 753 mmHg 90%
    02:00 +12°C° 0 mm 2 mps 753 mmHg 92%
    03:00 +12°C° 0 mm 2 mps 753 mmHg 91%
    04:00 +12°C° 0 mm 2 mps 753 mmHg 90%
    05:00 +12°C° 0 mm 2 mps 754 mmHg 90%
    06:00 +14°C° 0 mm 2 mps 754 mmHg 82%
    07:00 +16°C° 0 mm 3 mps 754 mmHg 75%
    08:00 +18°C° 0 mm 3 mps 754 mmHg 67%
    09:00 +19°C° 0 mm 3 mps 754 mmHg 62%
    10:00 +21°C° 0 mm 4 mps 754 mmHg 56%
    11:00 +22°C° 0 mm 4 mps 754 mmHg 51%
    12:00 +22°C° 0.2 mm 4 mps 754 mmHg 51%
    13:00 +23°C° 0.2 mm 4 mps 754 mmHg 51%
    14:00 +23°C° 0.2 mm 4 mps 754 mmHg 51%
    15:00 +23°C° 0.2 mm 4 mps 754 mmHg 53%
    16:00 +23°C° 0.2 mm 4 mps 754 mmHg 55%
    17:00 +22°C° 0.2 mm 4 mps 754 mmHg 56%
    18:00 +21°C° 0 mm 3 mps 754 mmHg 63%
    19:00 +19°C° 0 mm 3 mps 755 mmHg 70%
    20:00 +18°C° 0 mm 2 mps 755 mmHg 77%
    21:00 +17°C° 0 mm 2 mps 755 mmHg 80%
    22:00 +16°C° 0 mm 2 mps 755 mmHg 83%
    23:00 +15°C° 0 mm 1 mps 755 mmHg 86%

    Day after tomorrow, 26 June, Tuesday

    Time Temperature Precipitation Wind Pressure Humidity
    00:00 +15°C° 0 mm 1 mps 755 mmHg 87%
    01:00 +14°C° 0 mm 1 mps 755 mmHg 88%
    02:00 +14°C° 0 mm 1 mps 755 mmHg 89%
    03:00 +14°C° 0 mm 1 mps 756 mmHg 89%
    04:00 +14°C° 0 mm 1 mps 756 mmHg 88%
    05:00 +14°C° 0 mm 1 mps 756 mmHg 88%
    06:00 +16°C° 0 mm 1 mps 756 mmHg 80%
    07:00 +19°C° 0 mm 1 mps 756 mmHg 73%
    08:00 +20°C° 0 mm 2 mps 756 mmHg 66%
    09:00 +23°C° 0 mm 2 mps 756 mmHg 60%
    10:00 +24°C° 0 mm 2 mps 756 mmHg 54%
    11:00 +25°C° 0 mm 2 mps 756 mmHg 49%
    12:00 +26°C° 0.1 mm 2 mps 756 mmHg 48%
    13:00 +26°C° 0.1 mm 2 mps 755 mmHg 47%
    14:00 +27°C° 0.1 mm 2 mps 755 mmHg 46%
    15:00 +26°C° 0.1 mm 2 mps 755 mmHg 49%
    16:00 +26°C° 0.1 mm 2 mps 755 mmHg 51%
    17:00 +26°C° 0.1 mm 2 mps 755 mmHg 54%
    18:00 +24°C° 0.1 mm 2 mps 755 mmHg 60%
    19:00 +21°C° 0.1 mm 2 mps 755 mmHg 66%
    20:00 +21°C° 0.1 mm 1 mps 755 mmHg 72%
    21:00 +20°C° 0 mm 1 mps 755 mmHg 75%
    22:00 +19°C° 0 mm 1 mps 755 mmHg 78%
    23:00 +18°C° 0 mm 1 mps 755 mmHg 81%

    27 June, Wednesday

    Time Temperature Precipitation Wind Pressure Humidity
    00:00 +18°C° 0 mm 1 mps 755 mmHg 83%
    01:00 +16°C° 0 mm 1 mps 754 mmHg 85%
    02:00 +16°C° 0 mm 1 mps 754 mmHg 86%
    03:00 +16°C° 0 mm 1 mps 754 mmHg 87%
    04:00 +16°C° 0 mm 2 mps 754 mmHg 87%
    05:00 +16°C° 0 mm 2 mps 754 mmHg 87%
    06:00 +18°C° 0 mm 2 mps 754 mmHg 81%
    07:00 +20°C° 0 mm 3 mps 754 mmHg 75%
    08:00 +22°C° 0 mm 3 mps 754 mmHg 69%
    09:00 +24°C° 0 mm 3 mps 754 mmHg 63%
    10:00 +25°C° 0 mm 4 mps 754 mmHg 58%
    11:00 +27°C° 0 mm 4 mps 753 mmHg 52%
    12:00 +27°C° 0 mm 4 mps 753 mmHg 51%
    13:00 +28°C° 0 mm 4 mps 753 mmHg 50%
    14:00 +29°C° 0 mm 4 mps 752 mmHg 49%
    15:00 +29°C° 0 mm 4 mps 752 mmHg 52%
    16:00 +28°C° 0 mm 4 mps 752 mmHg 54%
    17:00 +28°C° 0 mm 4 mps 752 mmHg 57%
    18:00 +27°C° 0 mm 4 mps 751 mmHg 64%
    19:00 +26°C° 0 mm 3 mps 751 mmHg 71%
    20:00 +24°C° 0 mm 3 mps 751 mmHg 78%
    21:00 +24°C° 0.7 mm 3 mps 751 mmHg 81%
    22:00 +22°C° 0.7 mm 4 mps 751 mmHg 84%
    23:00 +22°C° 0.7 mm 4 mps 751 mmHg 87%

    28 June, Thursday

    Time Temperature Precipitation Wind Pressure Humidity
    00:00 +21°C° 1.2 mm 4 mps 750 mmHg 89%
    01:00 +21°C° 1.2 mm 3 mps 750 mmHg 91%
    02:00 +20°C° 1.2 mm 3 mps 749 mmHg 93%
    03:00 +21°C° 2 mm 4 mps 749 mmHg 94%
    04:00 +21°C° 2 mm 4 mps 749 mmHg 94%
    05:00 +21°C° 2 mm 5 mps 748 mmHg 95%
    06:00 +22°C° 0.2 mm 6 mps 748 mmHg 90%
    07:00 +24°C° 0.2 mm 6 mps 748 mmHg 86%
    08:00 +26°C° 0.2 mm 6 mps 748 mmHg 81%
    09:00 +27°C° 0 mm 6 mps 748 mmHg 75%
    10:00 +29°C° 0 mm 6 mps 748 mmHg 69%
    11:00 +30°C° 0 mm 6 mps 748 mmHg 63%
    12:00 +32°C° 1.1 mm 6 mps 748 mmHg 64%
    13:00 +32°C° 1.1 mm 6 mps 748 mmHg 64%
    14:00 +32°C° 1.1 mm 6 mps 748 mmHg 65%
    15:00 +30°C° 2.9 mm 5 mps 747 mmHg 70%
    16:00 +29°C° 2.9 mm 4 mps 747 mmHg 75%
    17:00 +28°C° 2.9 mm 3 mps 747 mmHg 80%
    18:00 +27°C° 1 mm 3 mps 747 mmHg 81%
    19:00 +26°C° 1 mm 2 mps 747 mmHg 82%
    20:00 +26°C° 1 mm 2 mps 747 mmHg 84%
    21:00 +25°C° 0.6 mm 2 mps 747 mmHg 85%
    22:00 +25°C° 0.6 mm 2 mps 747 mmHg 87%
    23:00 +24°C° 0.6 mm 2 mps 747 mmHg 88%

    29 June, Friday

    Time Temperature Precipitation Wind Pressure Humidity
    00:00 +24°C° 4.1 mm 2 mps 747 mmHg 90%
    01:00 +23°C° 4.1 mm 2 mps 747 mmHg 91%
    02:00 +22°C° 4.1 mm 3 mps 747 mmHg 93%
    03:00 +23°C° 0.3 mm 2 mps 747 mmHg 92%
    04:00 +23°C° 0.3 mm 2 mps 747 mmHg 92%
    05:00 +23°C° 0.3 mm 1 mps 746 mmHg 92%
    06:00 +24°C° 0.3 mm 1 mps 746 mmHg 88%
    07:00 +25°C° 0.3 mm 1 mps 747 mmHg 84%
    08:00 +26°C° 0.3 mm 1 mps 747 mmHg 80%
    09:00 +27°C° 1.4 mm 2 mps 747 mmHg 77%
    10:00 +27°C° 1.4 mm 2 mps 747 mmHg 75%
    11:00 +28°C° 1.4 mm 2 mps 747 mmHg 73%
    12:00 +29°C° 0.1 mm 2 mps 746 mmHg 66%
    13:00 +30°C° 0.1 mm 2 mps 746 mmHg 59%
    14:00 +31°C° 0.1 mm 2 mps 746 mmHg 51%
    15:00 +30°C° 0.3 mm 3 mps 746 mmHg 55%
    16:00 +30°C° 0.3 mm 3 mps 746 mmHg 59%
    17:00 +29°C° 0.3 mm 3 mps 746 mmHg 63%
    18:00 +28°C° 0.3 mm 2 mps 746 mmHg 70%
    19:00 +26°C° 0.3 mm 2 mps 746 mmHg 77%
    20:00 +24°C° 0.3 mm 2 mps 746 mmHg 83%
    21:00 +23°C° 0 mm 2 mps 746 mmHg 86%
    22:00 +21°C° 0 mm 2 mps 746 mmHg 88%
    23:00 +22°C° 0 mm 1 mps 746 mmHg 90%
    Show more